Regional Weather Roundup
Issued by NWS

Home | Current Version | Previous Version | Text Only | Print | Product List | Glossary Off
Versions: 1 2 3 4 5 6 7 8 9 10 11 12 13 14 15 16 17 18 19 20 21 22 23 24 25 26 27 28 29 30 31 32 33 34 35 36 37 38 39 40 41 42 43 44 45 46 47 48 49 50

000
ASUS43 KDTX 201710
RWRMI
MICHIGAN HOURLY REGIONAL WEATHER ROUNDUP
NATIONAL WEATHER SERVICE DETROIT/PONTIAC MI
1200 PM EST THU NOV 20 2014

NOTE: "FAIR" INDICATES FEW OR NO CLOUDS BELOW 12,000 FEET WITH NO
SIGNIFICANT WEATHER AND/OR OBSTRUCTION TO VISIBILITY.

MIZ047>049-052>055-059>063-066>070-074>076-081>083-201800-
SOUTHEAST LOWER MICHIGAN

CITY           SKY/WX    TMP DP  RH WIND       PRES   REMARKS
ADRIAN         CLOUDY    25  14  63 W15G23    29.97S
ALMA           LGT SNOW  22  17  83 W14       29.89R
ANN ARBOR      CLOUDY    25  13  60 W20G28    29.92F
BAD AXE        PTSUNNY   24  11  58 W16G24    29.83S
DETROIT CITY   LGT SNOW  27  17  66 SW16      29.91F
DETROIT        FLURRIES  26  15  63 SW18      29.93F
FLINT          SNOW      24  16  71 W16       29.88S VSB 1/2
GROSSE ILE     CLOUDY    27  16  63 SW21      29.93F
HILLSDALE      CLOUDY    26  14  60 W16G24    29.93S
HOWELL         LGT SNOW  24  15  70 W18G31    29.88S

CITY           SKY/WX    TMP DP  RH WIND       PRES   REMARKS
JACKSON        LGT SNOW  23  17  78 W14G23    29.91F
LAMBERTVILLE   CLOUDY    28  16  59 SW13G24   29.98F
LANSING        MIX PCPN  25  13  60 W28G35    29.90S
LAPEER         NOT AVBL
MASON          PTSUNNY   24  17  74 W16G23    29.90S
MONROE         PTSUNNY   27  18  69 W20G28    29.94F
MT. CLEMENS    PTSUNNY   27  18  69 SW17G30   29.86F
PONTIAC        SNOW      22  18  85 W14G22    29.86F VSB 1/2
PORT HOPE        N/A     25   8  48 W13G29    29.79F
PORT HURON     LGT SNOW  21  19  93 SW7       29.88F VSB 1
TRI CITIES     CLOUDY    24  10  55 W17       29.87S
YPSILANTI      CLOUDY    28  13  53 W21G31    29.92F
$$
MIZ043>046-050>051-056>058-064>065-071>073-077>080-201800-
SOUTHWEST LOWER MICHIGAN

CITY           SKY/WX    TMP DP  RH WIND       PRES   REMARKS
BATTLE CREEK   MIX PCPN  25  12  58 W25G37    29.93S
BENTON HARBOR  CLOUDY    24  10  55 W18G29    30.02R
BIG RAPIDS     PTSUNNY   20  12  72 W13G23    29.86S
COLDWATER      PTSUNNY   26  17  68 W22       29.96S
HOLLAND        LGT SNOW  24  14  65 W22G31    29.96S
GRAND RAPIDS   FLURRIES  23  13  65 W16G28    29.92R
KALAMAZOO      LGT SNOW  24  14  65 W16G29    29.96R
MARSHALL       LGT SNOW  23  18  82 W18       29.93S
MUSKEGON       SNOW      23  15  71 NW21      29.93S VSB 1/2
$$
MIZ016>042-201800-
NORTHERN LOWER MICHIGAN

CITY           SKY/WX    TMP DP  RH WIND       PRES   REMARKS
ALPENA         MOSUNNY   23  11  60 W15G23    29.74F
BEAVER ISLAND  MOSUNNY   22  11  62 W15G22    29.79R
BELLAIRE       FLURRIES  21  14  74 SW5       29.82S
CADILLAC       LGT SNOW  16  11  82 W12G17    29.80S VSB 1
CHARLEVOIX     PTSUNNY   22   5  49 W17G28    29.82R
FRANKFORT      LGT SNOW  20  12  71 NW12G20   29.87S
GAYLORD        LGT SNOW  16  10  77 W10G21    29.74R
GRAYLING       LGT SNOW  19  12  73 W15G23    29.78S
HARBOR SPRINGS CLOUDY    21   7  54 W14G23    29.77R
HOUGHTON LAKE  LGT SNOW  18  10  71 W21G28    29.80R
MANISTEE       CLOUDY    19   9  63 NW17G23   29.89S
OSCODA         CLOUDY    24  11  59 W16G23    29.78S
PELLSTON       MOSUNNY   21  10  62 NW20G25   29.76R
TRAVERSE CITY  FLURRIES  22  11  62 W20       29.83S
$$
MIZ007>008-015-201800-
EASTERN UPPER MICHIGAN

CITY           SKY/WX    TMP DP  RH WIND       PRES   REMARKS
KINROSS        CLOUDY    21  16  79 W18G26    29.67R
MACKINAC ISLAN CLOUDY    23  13  66 W24G33    29.72R
NEWBERRY       LGT SNOW  19  14  82 W17G23    29.71S
S. S. MARIE    HVY SNOW  20  17  88 SW3       29.69R VSB 1/4
$$
MIZ004>006-011>014-085-201800-
CENTRAL UPPER MICHIGAN

CITY           SKY/WX    TMP DP  RH WIND       PRES   REMARKS
MANISTIQUE     SUNNY     19   8  62 W20G28    29.79S
ESCANABA       SUNNY     18   3  53 NW13G22   29.85R
MENOMINEE      SUNNY     18   1  49 NW9G20    29.90R
SAWYER-GWINN   LGT SNOW  14   7  73 NW14G21   29.80R WCI  -1
$$
MIZ001>003-009>011-084-201800-
WESTERN UPPER MICHIGAN

CITY           SKY/WX    TMP DP  RH WIND       PRES   REMARKS
IRON MOUNTAIN  PTSUNNY   15   2  56 W12       29.84R
HOUGHTON       LGT SNOW  11   2  67 NW16      29.83S WCI  -6
COPPER HARBOR    N/A     17   9  70 N17G25    29.84R
IRONWOOD       CLOUDY     9   7  92 W16       29.88R VSB 1/2 WCI  -9
$$

ABBREVIATIONS USED IN REMARKS
   TC - TEMPERATURE IN CELSIUS
  WCI - WIND CHILL INDEX
   HX - HEAT INDEX
  VSB - VISIBILITY



USA.gov is the U.S. government's official web portal to all federal, state and local government web resources and services.